Weather in Pereluchi

Russia / Novgorod Oblast     58°12′47″N   34°29′27″E
temp.,
°C
wind,
m/s
gust,
m/s
humid.,
%
clouds,
%
prec.,
mm/h
press.,
hPa
HPBL,
m
2 march, tue
tue200:00+2wnw6128999 0.0 1010923
03:00+1wnw51290100 0.1 1010817
06:00+1wnw51189100 0.0 1008895
09:00+1wnw51085100 0.1 1009915
12:00+1wnw5108480 0.1 1009969
15:00+1nw6118088 0.1 10091114
18:00−1nw61386100 0.1 10111243
21:00−2nnw51280100 0.3 10141191
3 march, wed
wed300:00−4nw4118227 0.0 1015624
03:00−5wnw4108813 0.0 1017410
06:00−3wnw4119428 0.0 1015632
09:00−2wnw5118864 0.1 1015798
12:00−1wnw51086100 0.1 1014783
15:00−1w51085100 0.1 1012886
18:00−1w51185100 0.0 1009992
21:00−1w41384100 0.1 1007827
4 march, thu
thu400:000wsw51197100 0.1 1003774
03:000w61397100 1.8 1000925
06:00−1nw51189100 0.9 998833
09:00−3wnw498999 0.9 999976
12:00−2nw597672 0.1 999985
15:00−2nw597486 0.1 10001122
18:00−4nnw4779100 0.1 1001839
21:00−5nnw3679100 0.1 1003773
5 march, fri
fri500:00−6nw369198 0.1 1004483
03:00−8wnw379398 0.1 1006394
06:00−8wnw389398 0.1 1007467
09:00−7wnw478899 0.1 1008615
12:00−6wnw4679100 0.1 1009819
15:00−5wnw4673100 0.2 10101021
18:00−6wnw3785100 0.1 1011575
21:00−8nnw279298 0.2 1014511
6 march, sat
sat600:00−10nnw379383 0.0 1015421
03:00−12nnw258585 0.1 1016301
06:00−12wnw279180 0.0 1017459
09:00−11wnw368981 0.0 1017410
12:00−7w476971 0.0 1016785
15:00−5wsw587069 0.0 10131165
18:00−6sw51174100 0.1 10091224
21:00−7sw71587100 0.1 10031105